Weather History for KEFK - December, 2013

Change the Weather History Date:

Tuesday, December 3, 2013

  Actual Average (KMVL) Record (KMVL)
Temperature  
Mean Temperature 34 °F 28 °F  
Max Temperature 35 °F 37 °F - ()
Min Temperature 32 °F 19 °F - ()
Degree Days  
Heating Degree Days 32 37  
Month to date heating degree days 110  
Since 1 July heating degree days 1938  
Cooling Degree Days 0 0  
Month to date cooling degree days 0  
Year to date cooling degree days 265  
Moisture  
Dew Point 30 °F    
Average Humidity 88    
Maximum Humidity 92    
Minimum Humidity 64    
Precipitation  
Precipitation 0.00 in 0.10 in - ()
Month to date precipitation 0.29  
Year to date precipitation 33.65  
Sea Level Pressure  
Sea Level Pressure 29.93 in    
Wind  
Wind Speed 2 mph (West)    
Max Wind Speed 6 mph    
Max Gust Speed -    
Visibility 4 miles    
Events Fog    
T = Trace of Precipitation, MM = Missing Value Source: NWS Daily Summary

Daily Weather History Graph

Daily Weather History Graph

Search for Another Location

Airport or City:

Trip Planner

Search our weather history database for the weather conditions in past years. The results will help you decide how hot, cold, wet, or windy it might be!

Date:

Astronomy

Dec. 03, 2013 Rise Set
Actual Time 7:09 AM EST 4:08 PM EST
Civil Twilight 6:35 AM EST 4:41 PM EST
Nautical Twilight 5:59 AM EST 5:18 PM EST
Astronomical Twilight 5:23 AM EST 5:53 PM EST
Moon 7:34 AM EST (12/3) 5:10 PM EST (12/3)
Length of Visible Light 10h 05m
Length of Day
8h 59m
New Moon, 1% of the Moon is Illuminated
Dec 3
New Moon
Dec 9
First Quarter
Dec 17
Full
Dec 25
Last Quarter
Jan 1
New

Hourly Weather History & Observations

Time (EST) Temp. Windchill Dew Point Humidity Pressure Visibility Wind Dir Wind Speed Gust Speed Precip Events Conditions
12:15 AM 35.2 °F - 32.0 °F 88% 29.90 in 7.0 mi Calm Calm - N/A   Overcast
12:35 AM 35.8 °F - 32.2 °F 87% 29.90 in 10.0 mi Calm Calm - N/A   Overcast
12:55 AM 35.1 °F 32.2 °F 32.0 °F 89% 29.90 in 7.0 mi SSE 3.5 mph - N/A   Overcast
1:15 AM 35.2 °F - 32.0 °F 88% 29.90 in 7.0 mi Calm Calm - N/A   Overcast
1:35 AM 34.9 °F - 32.0 °F 89% 29.90 in 7.0 mi Calm Calm - N/A   Overcast
1:55 AM 34.7 °F - 31.8 °F 89% 29.90 in 5.0 mi Calm Calm - N/A   Overcast
2:15 AM 35.2 °F - 32.0 °F 88% 29.90 in 10.0 mi Calm Calm - N/A   Overcast
2:35 AM 34.7 °F - 31.6 °F 89% 29.91 in 7.0 mi Calm Calm - N/A   Overcast
2:55 AM 34.7 °F - 31.8 °F 89% 29.91 in 5.0 mi Calm Calm - N/A   Mostly Cloudy
3:15 AM 33.6 °F - 31.1 °F 90% 29.90 in 4.0 mi Calm Calm - N/A   Mostly Cloudy
3:35 AM 33.3 °F 30.2 °F 30.7 °F 90% 29.91 in 1.8 mi SSW 3.5 mph - N/A   Overcast
3:55 AM 33.1 °F 30.0 °F 30.7 °F 91% 29.91 in 0.5 mi SSW 3.5 mph - N/A Fog Fog
4:15 AM 33.1 °F - 30.6 °F 90% 29.90 in 2.5 mi Calm Calm - N/A   Overcast
4:35 AM 33.1 °F 28.7 °F 30.7 °F 91% 29.90 in 1.8 mi SSW 4.6 mph - N/A   Overcast
4:55 AM 33.8 °F 29.6 °F 31.3 °F 90% 29.91 in 1.8 mi SSW 4.6 mph - N/A   Overcast
5:15 AM 33.8 °F - 31.5 °F 91% 29.90 in 2.0 mi Calm Calm - N/A   Overcast
5:35 AM 33.8 °F 30.8 °F 31.3 °F 90% 29.91 in 1.2 mi South 3.5 mph - N/A   Overcast
5:55 AM 33.6 °F - 31.1 °F 90% 29.91 in 1.0 mi Calm Calm - N/A   Overcast
6:15 AM 33.6 °F 30.6 °F 31.1 °F 90% 29.92 in 0.8 mi South 3.5 mph - N/A   Overcast
6:35 AM 33.4 °F - 31.1 °F 91% 29.92 in 1.0 mi Calm Calm - N/A   Overcast
6:55 AM 33.3 °F - 31.1 °F 92% 29.92 in 0.8 mi Calm Calm - N/A   Overcast
7:15 AM 33.1 °F - 30.7 °F 91% 29.92 in 0.5 mi Calm Calm - N/A Fog Fog
7:35 AM 32.9 °F - 30.7 °F 92% 29.92 in 0.2 mi Calm Calm - N/A Fog Fog
7:55 AM 32.9 °F 28.5 °F 30.7 °F 92% 29.92 in 0.2 mi SE 4.6 mph - N/A Fog Fog
8:15 AM 32.9 °F 29.8 °F 30.7 °F 92% 29.92 in 0.5 mi SSE 3.5 mph - N/A Fog Fog
8:35 AM 32.9 °F 29.8 °F 30.7 °F 92% 29.93 in 0.5 mi SSE 3.5 mph - N/A Fog Fog
8:55 AM 32.9 °F 28.5 °F 30.7 °F 92% 29.93 in 0.5 mi SSW 4.6 mph - N/A Fog Fog
9:15 AM 32.9 °F 29.8 °F 30.6 °F 91% 29.93 in 0.2 mi SSE 3.5 mph - N/A Fog Fog
9:35 AM 32.9 °F 29.8 °F 30.7 °F 92% 29.93 in 0.2 mi SSE 3.5 mph - N/A Fog Fog
9:55 AM 32.9 °F 29.8 °F 30.7 °F 92% 29.92 in 0.2 mi SSE 3.5 mph - N/A Fog Fog
10:15 AM 33.1 °F - 30.9 °F 92% 29.92 in 0.2 mi Calm Calm - N/A Fog Fog
10:35 AM 33.1 °F 30.0 °F 30.7 °F 91% 29.92 in 0.2 mi SE 3.5 mph - N/A Fog Fog
10:55 AM 33.1 °F - 30.7 °F 91% 29.92 in 0.2 mi Calm Calm - N/A Fog Fog
11:15 AM 33.1 °F 30.0 °F 30.9 °F 92% 29.91 in 0.2 mi ESE 3.5 mph - N/A Fog Fog
11:35 AM 33.1 °F - 30.9 °F 92% 29.91 in 0.2 mi Calm Calm - N/A Fog Fog
11:55 AM 33.1 °F - 30.9 °F 92% 29.91 in 0.2 mi Calm Calm - N/A Fog Fog
12:15 PM 33.8 °F - 31.5 °F 91% 29.91 in 0.2 mi Calm Calm - N/A Fog Fog
12:35 PM 33.8 °F - 31.6 °F 92% 29.90 in 0.2 mi Calm Calm - N/A Fog Fog
12:55 PM 33.4 °F - 31.1 °F 91% 29.90 in 0.2 mi Calm Calm - N/A Fog Fog
1:15 PM 32.9 °F - 30.7 °F 92% 29.90 in 0.2 mi Calm Calm - N/A Fog Fog
1:35 PM 32.9 °F - 30.7 °F 92% 29.90 in 0.2 mi Calm Calm - N/A Fog Fog
1:55 PM 33.1 °F 30.0 °F 30.9 °F 92% 29.90 in 0.2 mi North 3.5 mph - N/A Fog Fog
2:15 PM 33.1 °F - 30.9 °F 92% 29.90 in 0.2 mi Calm Calm - N/A Fog Fog
2:35 PM 33.3 °F - 31.1 °F 92% 29.91 in 0.2 mi Calm Calm - N/A Fog Fog
2:55 PM 33.6 °F - 31.5 °F 92% 29.92 in 0.2 mi Calm Calm - N/A Fog Fog
3:15 PM 33.8 °F - 31.3 °F 90% 29.92 in 0.2 mi Calm Calm - N/A Fog Fog
3:35 PM 33.8 °F - 31.5 °F 91% 29.93 in 0.2 mi Calm Calm - N/A Fog Fog
3:55 PM 33.8 °F - 31.6 °F 92% 29.93 in 0.8 mi Calm Calm - N/A   Overcast
4:15 PM 33.8 °F - 31.8 °F 92% 29.94 in 2.5 mi Calm Calm - N/A   Overcast
4:35 PM 34.3 °F 31.4 °F 32.0 °F 91% 29.94 in 4.0 mi NW 3.5 mph - N/A   Overcast
4:55 PM 34.7 °F 29.6 °F 32.0 °F 90% 29.94 in 5.0 mi NW 5.8 mph - N/A   Overcast
5:15 PM 34.9 °F 30.8 °F 32.0 °F 89% 29.94 in 5.0 mi NNW 4.6 mph - N/A   Overcast
5:35 PM 34.9 °F 32.0 °F 31.5 °F 87% 29.95 in 5.0 mi NW 3.5 mph - N/A   Overcast
5:55 PM 34.7 °F 30.6 °F 31.1 °F 87% 29.95 in 5.0 mi NW 4.6 mph - N/A   Overcast
6:15 PM 34.7 °F 31.8 °F 30.9 °F 86% 29.95 in 5.0 mi NW 3.5 mph - N/A   Overcast
6:35 PM 34.5 °F 31.6 °F 30.6 °F 85% 29.95 in 5.0 mi NNW 3.5 mph - N/A   Haze
6:55 PM 34.3 °F 31.4 °F 30.7 °F 87% 29.96 in 5.0 mi NNW 3.5 mph - N/A   Overcast
7:15 PM 34.3 °F 31.4 °F 30.6 °F 86% 29.96 in 5.0 mi NNE 3.5 mph - N/A   Overcast
7:35 PM 34.3 °F 29.2 °F 30.2 °F 85% 29.95 in 7.0 mi North 5.8 mph - N/A   Overcast
7:55 PM 34.0 °F - 30.2 °F 86% 29.96 in 5.0 mi Calm Calm - N/A   Overcast
8:15 PM 33.8 °F - 30.0 °F 86% 29.95 in 5.0 mi Calm Calm - N/A   Overcast
8:35 PM 34.2 °F - 29.3 °F 82% 29.95 in 7.0 mi Calm Calm - N/A   Overcast
8:55 PM 34.0 °F - 29.3 °F 83% 29.95 in 7.0 mi Calm Calm - N/A   Overcast
9:15 PM 33.6 °F 30.6 °F 28.6 °F 82% 29.95 in 7.0 mi WNW 3.5 mph - N/A   Overcast
9:35 PM 33.6 °F 29.4 °F 28.4 °F 81% 29.95 in 7.0 mi NW 4.6 mph - N/A   Overcast
9:55 PM 33.4 °F 28.1 °F 27.5 °F 79% 29.95 in 7.0 mi WNW 5.8 mph - N/A   Overcast
10:15 PM 33.3 °F 28.9 °F 25.5 °F 73% 29.95 in 10.0 mi NW 4.6 mph - N/A   Overcast
10:35 PM 33.1 °F 30.0 °F 24.8 °F 72% 29.96 in 10.0 mi WNW 3.5 mph - N/A   Overcast
10:55 PM 32.9 °F 27.5 °F 24.6 °F 72% 29.96 in 10.0 mi NW 5.8 mph - N/A   Overcast
11:15 PM 32.9 °F 29.8 °F 24.4 °F 71% 29.97 in 10.0 mi WNW 3.5 mph - N/A   Overcast
11:35 PM 32.7 °F 28.3 °F 23.0 °F 67% 29.97 in 10.0 mi WNW 4.6 mph - N/A   Overcast
11:55 PM 32.7 °F 27.3 °F 21.9 °F 64% 29.97 in 10.0 mi WNW 5.8 mph - N/A   Overcast